Regional Weather Roundup
Issued by NWS

Home | Current Version | Previous Version | Text Only | Print | Product List | Glossary On
Versions: 1 2 3 4 5 6 7 8 9 10 11 12 13 14 15 16 17 18 19 20 21 22 23 24 25 26 27 28 29 30 31 32 33 34 35 36 37 38 39 40 41 42 43 44 45 46 47 48 49 50
000
ASUS43 KLOT 181210
RWRIL

ILLINOIS REGIONAL WEATHER ROUNDUP
NATIONAL WEATHER SERVICE CHICAGO/ROMEOVILLE IL
700 AM CDT FRI APR 18 2014

NOTE: "FAIR" INDICATES FEW OR NO CLOUDS BELOW 12,000 FEET WITH NO
SIGNIFICANT WEATHER AND/OR OBSTRUCTIONS TO VISIBILITY.

* THESE STATIONS ARE NOT UNDER NWS QUALITY CONTROL. THEY ALSO MAY NOT
  REPORT WEATHER SUCH AS PRECIPITATION OR FOG.

ILZ001-002-007-009-015-016-024-181300-
NORTHWEST ILLINOIS

CITY           SKY/WX    TMP DP  RH WIND       PRES   REMARKS
MOLINE         CLEAR     31  28  89 CALM      30.34R FOG
6HR MIN TEMP:  29; 6HR MAX TEMP:  43;

STERLING*      CLEAR     36  30  80 N7        30.32R WCI  30
SAVANNA*       CLEAR     33  32  96 N5        30.34R FOG     WCI  28
$$

ILZ003-004-008-010-011-017-018-181300-
NORTH CENTRAL ILLINOIS

CITY           SKY/WX    TMP DP  RH WIND       PRES   REMARKS
ROCKFORD       CLEAR     35  31  85 N8        30.34R WCI  29
6HR MIN TEMP:  34; 6HR MAX TEMP:  43;

FREEPORT*      CLEAR     34  32  93 NW5       30.35R FOG     WCI  30
ROCHELLE*      CLEAR     33  31  96 N5        30.32R FOG     WCI  28
DE KALB*       CLEAR     32  31  96 N5        30.32R FOG     WCI  28
PERU*          CLEAR     35  33  92 CALM      30.32R FOG
$$

ILZ005-006-012>014-019>023-181300-
NORTHEAST ILLINOIS

CITY           SKY/WX    TMP DP  RH WIND       PRES   REMARKS
CHICAGO-OHARE  PTCLDY    41  33  73 N5        30.30R
6HR MIN TEMP:  40; 6HR MAX TEMP:  48;

CHICAGO-MIDWAY PTCLDY    43  37  79 N7        30.30R
6HR MIN TEMP:  42; 6HR MAX TEMP:  50;

AURORA         CLEAR     34  32  92 NW6       30.31R FOG     WCI  29
6HR MIN TEMP:  31; 6HR MAX TEMP:  45;

LANSING*       PTCLDY    42  36  79 N3        30.30R
WAUKEGAN       CLEAR     36  32  85 NW5       30.30R FOG     WCI  32
6HR MIN TEMP:  36; 6HR MAX TEMP:  42;

DUPAGE AIRPORT CLEAR     36  33  89 N7        30.30R FOG     WCI  30
6HR MIN TEMP:  33; 6HR MAX TEMP:  48;

KANKAKEE*      CLOUDY    43  40  90 W3        30.30S
WHEELING       CLEAR     41  34  76 N5        30.31R
6HR MIN TEMP:  39; 6HR MAX TEMP:  46;

MORRIS*        CLEAR     37  35  91 NW5       30.30R FOG     WCI  33
ROMEOVILLE*    CLEAR     41  37  86 NE6       30.30R FOG
NORTHERLY ISL    N/A     41  37  86 N10         N/A
$$

LMZ740>746-181300-
SOUTHERN LAKE MICHIGAN

STATION/POSITION SKY/WX   TEMP    WIND        PRES    VSBY  WAVE
                          AIR SEA DIR/SP/G                  HT/PER
                          (F)     (DEG/KT/KT) (MB)    (MI)  (FT/S)
WAUKEGAN HARBOR            39     350/  7/ 10 1027.1R
HARRISON CRIB              40     350/ 12/ 13   N/A
BURNHAM HARBOR             42     340/  7/ 13   N/A
CALUMET HARBOR             41     340/  9/ 11 1026.7R
MICHIGAN CITY              40      10/  5/  6   N/A
$$

ILZ025>027-034>036-040-047-049-050-058-095>099-181300-
WEST-CENTRAL ILLINOIS

CITY           SKY/WX    TMP DP  RH WIND       PRES   REMARKS
QUINCY         CLEAR     36  32  85 NE6       30.32R WCI  31
GALESBURG*     CLEAR     30  30 100 CALM      30.33R FOG
MACOMB*        CLEAR     33  32  94 N7        30.34R WCI  27
JACKSONVILLE*  CLEAR     38  35  92 CALM      30.33R FOG
PITTSFIELD*    CLEAR     38  35  89 CALM      30.33R
$$

ILZ028>032-037-038-041>044-048-051>054-059>061-181300-
CENTRAL ILLINOIS

CITY           SKY/WX    TMP DP  RH WIND       PRES   REMARKS
PONTIAC        CLEAR     43  37  81 CALM      30.31R
BLOOMINGTON    PTCLDY    40  35  82 N6        30.31R
DECATUR        CLEAR     42  37  82 N6        30.30R
PEORIA         CLEAR     41  34  76 CALM      30.32R
6HR MIN TEMP:  39; 6HR MAX TEMP:  48;

LACON*         CLEAR     35  33  93 CALM      30.32R FOG
LINCOLN*       CLEAR     44  39  84 NW3       30.31R
SPRINGFIELD    CLEAR     40  36  86 CALM      30.32R
6HR MIN TEMP:  39; 6HR MAX TEMP:  49;

TAYLORVILLE    CLEAR     37  36  93 N5        30.30R WCI  34
$$

ILZ033-039-045-046-055>057-062-063-181300-
EAST-CENTRAL ILLINOIS

CITY           SKY/WX    TMP DP  RH WIND       PRES   REMARKS
CHAMPAIGN      MOCLDY    43  38  82 N3        30.29R
RANTOUL*       CLEAR     47  39  74 CALM      30.30S
MATTOON        CLEAR     43  39  86 N7        30.28R
PARIS*         PTCLDY    46  41  85 CALM      30.29R
$$

ILZ079-100>102-181300-
SOUTHWEST ILLINOIS

CITY           SKY/WX    TMP DP  RH WIND       PRES   REMARKS
ALTON          CLEAR     43  37  81 N6        30.31R
BELLEVILLE     PTCLDY    46  42  85 N5        30.29R
CAHOKIA*       CLEAR     45  40  82 N5        30.30R
SPARTA*        PTCLDY    46  43  87 N6        30.29R
$$

ILZ064>066-069>071-074>076-080>082-084>086-088>090-092>094-181300-
SOUTH-CENTRAL ILLINOIS

CITY           SKY/WX    TMP DP  RH WIND       PRES   REMARKS
CARBONDALE     MOCLDY    47  43  86 CALM      30.26S
6HR MIN TEMP:  42; 6HR MAX TEMP:  47;

CAIRO*         MOCLDY    52  46  81 SE3       30.25R
MARION         MOCLDY    48  46  93 NW6       30.27R
MT. VERNON     MOCLDY    45  34  65 NE3       30.27S
CENTRALIA*       N/A     45  41  85 CALM      30.28R
SALEM*         MOCLDY    47  43  87 N6        30.28R
METROPOLIS*    CLOUDY    46  44  93 CALM      30.24S
$$

ILZ067-068-072-073-078-083-087-091-181300-
SOUTHEAST ILLINOIS

CITY           SKY/WX    TMP DP  RH WIND       PRES   REMARKS
FAIRFIELD*     CLOUDY    48  45  87 CALM      30.26S
HARRISBURG*    MOCLDY    46  45  97 CALM      30.27S
ROBINSON*      MOCLDY    46  45  96 N3        30.28S
CARMI*         MOCLDY    48  47  97 CALM      30.27R
$$

ABBREVIATIONS USED IN REMARKS
   TC - TEMPERATURE IN CELSIUS
  WCI - WIND CHILL INDEX
   HX - HEAT INDEX
  VSB - VISIBILITY
$$




USA.gov is the U.S. government's official web portal to all federal, state and local government web resources and services.